GFSMA_850_spd_165.txt.gz
Wind_Speed
11 13 13 10 7 6 6 6 7 8 8 9 10 10 11 10 9 11 11 15 18 21 22 25 21 19 17 16 18 20 23 26 26 25 24 25 26 26 25 26 26 22 23
11 10 8 5 4 4 2 3 4 6 7 8 9 10 11 12 10 7 9 12 13 14 13 12 13 16 18 19 20 20 22 23 27 26 28 28 26 26 28 28 30 23 27
11 8 6 6 5 2 2 5 7 9 10 11 12 12 12 11 10 6 6 10 10 11 11 10 8 8 10 13 18 20 18 23 28 30 31 31 31 29 28 30 29 30 32
11 8 7 5 2 1 2 4 6 7 9 10 10 10 9 8 3 3 11 12 11 10 9 12 15 14 15 15 15 18 18 18 20 24 27 31 33 32 32 30 31 31 33
10 9 8 5 1 2 3 5 7 8 9 9 10 9 4 1 5 3 6 6 7 11 12 15 17 16 14 14 14 16 17 18 20 21 22 26 29 30 34 35 33 34 34
12 10 8 5 3 2 3 4 5 6 8 9 9 7 9 11 6 3 4 7 12 14 12 12 11 10 10 11 13 13 17 20 20 22 23 23 25 27 31 32 35 35 35
13 11 10 8 5 2 2 4 5 7 8 8 6 10 12 12 6 6 4 7 9 9 12 14 12 11 11 12 12 14 16 18 21 21 22 23 26 26 28 29 31 34 37
15 13 10 7 3 1 2 3 4 6 8 9 7 5 8 9 11 9 8 6 5 7 9 7 5 8 10 12 14 15 19 22 23 23 25 25 25 28 30 27 24 29 39
15 12 9 6 3 3 2 3 3 5 6 6 5 2 3 5 9 7 3 7 8 8 10 8 9 7 9 13 17 22 25 27 25 27 30 29 26 23 25 25 25 25 31
15 11 8 6 4 3 2 2 3 4 4 3 2 2 1 1 4 6 5 1 3 6 9 12 11 11 16 20 20 19 20 21 21 23 26 30 31 29 26 26 29 27 26
14 10 8 6 5 4 3 2 2 2 3 2 1 1 4 6 5 4 8 9 2 2 10 9 12 13 15 18 19 19 19 23 23 21 17 18 20 24 28 29 27 28 26
13 11 9 8 6 5 5 4 3 2 1 1 1 1 4 7 6 5 7 12 10 4 5 3 8 12 17 19 21 23 20 21 22 23 17 16 14 16 22 28 29 26 23
13 10 8 7 6 6 6 4 2 3 1 1 2 3 3 4 5 5 6 5 3 10 5 3 7 13 18 22 23 24 21 21 19 21 17 17 16 16 13 14 24 31 28
11 10 8 8 7 6 4 4 3 2 2 3 2 4 5 5 5 5 5 5 1 5 4 2 8 13 18 23 25 24 23 20 18 15 16 15 16 17 18 15 12 13 20
11 10 10 8 6 6 5 4 4 3 2 3 2 2 5 4 6 6 6 5 3 2 6 8 10 13 16 21 21 23 21 18 14 15 18 16 17 16 15 16 17 15 13
13 12 10 9 7 8 8 6 4 4 3 3 4 4 4 4 6 6 5 4 6 7 8 11 13 13 15 18 20 19 16 14 9 13 16 17 18 20 21 20 16 17 16
13 12 10 10 9 9 8 6 5 6 5 5 8 5 4 5 7 8 6 9 9 11 13 14 7 13 13 14 14 13 12 11 11 14 16 16 17 18 18 19 20 18 18
13 14 12 11 10 9 9 8 8 6 6 9 8 5 4 6 7 8 10 12 11 11 13 10 3 13 13 12 13 9 4 7 5 9 14 18 19 16 17 17 16 16 16
19 13 13 12 10 10 9 9 8 8 7 10 6 5 5 6 7 9 11 12 11 11 12 8 9 13 14 16 13 7 3 4 3 3 3 12 17 18 17 17 17 17 17
15 15 13 12 12 11 9 9 8 7 8 6 4 6 6 7 7 8 9 10 9 9 11 13 15 17 16 15 9 9 5 3 1 4 5 6 11 15 18 20 20 19 18
17 19 15 16 14 13 11 10 9 9 9 7 5 7 7 6 6 7 6 6 7 7 9 12 12 12 11 6 4 4 2 1 1 2 5 3 7 13 17 19 20 20 17
18 12 17 17 14 11 12 14 13 12 9 8 7 8 8 8 6 7 5 4 5 5 5 5 5 5 5 5 1 3 4 4 2 3 2 4 5 10 15 20 20 17 18
21 27 21 14 13 12 15 19 14 10 9 8 8 7 5 5 5 5 5 3 3 3 3 4 3 5 8 8 2 4 4 3 3 3 4 3 7 7 13 16 19 16 14
28 22 18 16 13 11 13 17 15 12 10 8 7 4 2 2 3 4 3 1 2 3 6 7 7 10 15 14 7 4 3 8 4 4 5 5 9 8 11 15 18 16 12
22 20 18 18 15 14 14 15 15 13 10 8 6 1 0 1 2 2 2 1 3 4 6 8 10 9 14 18 15 3 5 7 2 5 6 8 12 10 8 15 15 17 14
21 19 19 19 16 14 13 13 13 12 9 7 4 2 2 2 1 2 4 3 4 6 7 8 7 7 11 15 19 19 15 10 5 6 7 10 5 6 1 12 12 15 12

GFSMA_850_spd_168.txt.gz
Wind_Speed
14 13 12 9 9 8 7 6 6 5 6 7 7 7 8 8 9 11 12 12 12 13 14 17 17 15 16 15 17 15 17 20 21 21 21 22 24 23 24 26 27 28 28
15 13 12 11 10 8 6 5 4 4 5 6 8 9 9 9 8 10 11 11 10 11 11 11 12 7 6 11 16 16 19 20 23 25 26 25 27 25 26 28 29 30 32
17 14 14 13 10 8 6 5 4 5 4 5 6 7 7 7 9 10 9 7 7 8 9 11 7 6 6 10 12 19 21 24 25 24 25 28 30 28 26 26 29 31 32
16 15 14 12 10 9 8 6 4 4 4 5 6 6 6 7 7 6 4 4 7 7 6 7 9 12 13 16 18 18 18 19 18 20 23 25 30 30 29 31 28 27 31
17 16 15 13 11 9 6 5 4 3 3 4 4 3 4 5 1 1 1 2 3 7 11 13 12 13 14 16 18 20 20 18 19 22 23 24 24 27 29 30 32 31 29
18 17 16 14 12 8 6 5 3 2 4 4 3 3 5 7 10 5 2 1 4 9 10 9 10 11 10 9 13 16 17 16 19 22 24 25 27 28 29 28 29 30 33
19 17 16 14 11 8 6 4 3 1 2 4 7 11 13 12 8 7 5 3 4 8 11 14 17 15 14 14 14 14 17 19 19 22 24 25 26 27 29 28 27 28 30
18 17 15 13 10 8 7 5 3 1 2 4 12 17 10 13 11 9 6 4 1 5 10 13 12 14 14 15 17 20 20 20 22 24 26 26 27 30 31 30 31 30 27
18 16 14 12 10 8 6 4 3 2 1 3 7 9 8 6 12 8 5 2 1 3 6 8 10 11 13 15 16 18 19 20 20 20 21 23 25 29 29 28 27 26 25
18 16 13 12 10 7 6 5 5 4 3 3 5 7 7 8 9 8 7 3 2 1 3 7 8 10 12 15 17 18 21 23 23 22 18 17 15 18 24 28 29 28 25
20 17 15 13 10 9 8 7 6 5 4 4 5 6 7 8 9 8 7 7 2 1 4 6 9 10 13 17 19 21 23 24 24 23 20 15 15 14 13 14 23 28 30
21 20 17 14 11 10 9 8 6 6 5 5 5 6 8 10 9 7 6 3 4 6 5 4 7 10 13 18 21 23 26 26 24 21 15 14 13 13 14 14 15 20 27
22 19 16 14 13 12 10 8 7 6 6 6 7 7 7 8 8 8 8 4 7 7 4 1 6 11 15 16 23 26 27 26 24 19 16 14 15 15 16 15 12 13 16
18 18 16 14 13 12 10 9 10 8 6 5 6 6 7 7 6 8 7 6 8 11 11 5 8 12 16 19 23 25 24 26 23 17 16 15 15 17 18 16 15 15 15
18 18 17 15 13 12 12 11 9 8 6 6 7 6 8 8 8 8 7 7 9 9 16 13 11 11 15 18 20 22 23 23 22 18 19 18 18 19 19 17 15 14 16
19 17 15 13 13 12 9 10 9 8 7 7 8 7 7 8 8 10 10 10 13 12 10 10 13 14 15 15 18 20 21 20 18 17 17 18 18 18 19 19 18 17 17
18 17 15 12 13 12 13 11 11 10 9 8 7 6 6 8 9 11 11 12 13 12 13 14 14 15 14 14 15 18 19 16 13 16 17 17 19 18 18 19 19 19 19
19 18 17 20 16 14 13 13 12 11 9 7 7 7 8 10 9 11 13 15 14 13 12 11 15 16 15 15 15 16 15 14 9 7 13 15 16 18 18 18 18 19 21
24 23 20 20 12 15 14 14 13 11 9 9 8 9 9 8 9 11 13 13 12 11 12 12 15 15 15 16 16 16 15 12 9 9 10 10 14 16 16 17 17 18 19
22 25 25 19 17 14 17 15 14 12 10 9 9 8 6 7 6 8 9 11 10 8 10 11 13 14 16 17 15 12 12 10 5 4 4 7 10 14 15 15 15 18 16
22 23 21 18 19 16 18 15 14 11 9 8 8 7 5 6 5 7 7 8 8 7 8 10 10 12 13 12 11 10 9 8 7 4 4 5 7 11 12 15 15 16 12
21 19 20 20 16 16 16 16 14 12 9 7 9 7 6 5 5 7 5 6 6 6 5 5 5 6 7 8 7 7 6 6 7 4 4 2 4 6 10 14 14 11 15
20 19 20 21 19 18 18 16 17 14 11 10 11 9 7 6 6 6 3 4 4 3 2 1 0 1 3 4 4 5 6 6 7 4 6 2 1 3 8 13 12 9 13
20 21 20 15 17 16 16 19 19 16 14 13 12 9 7 6 5 4 3 2 1 2 3 3 4 5 7 8 1 6 5 7 5 3 9 5 3 2 7 12 10 8 11
21 21 19 18 17 14 16 16 19 19 15 13 11 9 7 5 4 2 3 3 3 2 2 3 6 9 10 13 7 3 5 8 3 3 10 8 9 4 5 10 8 7 8
22 22 22 20 18 15 17 16 21 19 15 13 10 8 6 5 2 2 4 3 3 4 3 6 8 8 8 11 13 10 4 8 8 5 7 7 6 7 3 7 6 5 4

GFSMA_850_spd_174.txt.gz
Wind_Speed
15 12 11 10 8 8 8 7 6 6 6 6 6 6 6 6 6 6 6 7 7 7 4 4 3 1 3 6 7 9 14 14 15 14 16 16 17 17 17 18 18 20 20
15 13 10 9 9 9 9 8 7 6 6 6 7 7 7 6 6 5 5 5 5 4 5 5 7 3 7 2 6 6 10 11 10 14 16 18 18 19 20 21 22 22 22
16 14 12 11 11 10 10 8 7 6 7 7 7 7 6 5 5 5 5 4 4 2 1 3 6 8 8 10 11 13 13 13 15 18 18 18 19 18 18 20 22 23 23
20 17 15 14 12 12 11 9 8 7 7 6 6 5 3 2 3 4 5 4 2 1 1 2 5 8 9 10 11 12 13 14 16 18 21 21 24 23 21 21 22 23 25
22 21 18 16 14 13 12 11 10 9 8 6 5 4 3 4 5 5 5 5 4 2 0 2 4 5 5 6 7 10 11 13 13 14 17 19 19 22 22 22 22 22 24
24 23 20 18 16 14 13 11 10 9 8 6 6 6 6 6 7 7 5 4 3 1 2 3 5 7 7 6 7 10 12 13 15 14 14 15 15 17 21 25 26 27 24
24 23 21 19 17 16 15 13 11 9 8 8 8 9 9 8 7 7 5 4 2 3 3 4 6 7 7 8 8 9 12 13 15 14 13 12 14 15 17 20 21 24 27
23 22 19 17 16 15 14 13 12 10 10 11 10 11 10 8 9 8 8 7 5 4 4 5 5 6 7 9 11 12 13 13 15 16 14 13 14 15 15 16 19 22 22
22 21 19 17 16 15 14 13 13 12 13 14 13 8 6 7 14 9 8 8 7 6 6 5 6 7 9 11 12 13 13 14 16 16 15 13 11 13 16 17 17 17 21
21 20 19 18 17 15 15 15 14 14 13 14 15 17 12 7 9 9 11 11 10 9 7 7 7 7 9 11 14 16 17 18 20 20 17 16 16 18 19 18 18 18 19
20 19 19 18 17 17 17 16 15 14 14 14 14 15 18 14 13 10 13 14 12 10 10 10 9 7 8 11 14 17 19 21 21 22 20 19 19 17 18 19 18 17 18
18 18 19 19 19 18 17 15 14 14 14 14 14 14 14 12 13 13 11 16 14 11 10 10 8 6 9 12 14 16 20 21 22 21 20 19 19 18 18 16 16 15 17
17 17 19 19 17 17 16 15 14 14 12 13 13 13 12 11 11 12 12 14 12 13 11 10 9 10 10 11 13 17 20 22 22 23 21 18 17 17 16 14 13 13 15
13 14 17 18 17 17 18 16 14 13 12 12 12 11 10 10 10 9 9 11 10 12 14 13 12 12 11 10 12 14 18 20 22 21 21 18 16 15 15 14 11 12 13
12 14 15 18 17 17 16 15 14 12 11 11 9 9 9 9 10 10 9 9 10 9 12 12 12 11 10 10 11 14 16 18 20 21 17 15 15 16 14 13 13 13 13
15 17 16 17 16 15 15 14 12 11 10 9 8 9 10 9 9 10 10 11 10 10 8 11 12 10 9 11 12 12 13 14 14 17 19 15 15 15 15 13 14 14 15
18 18 14 13 12 13 15 15 14 12 10 9 9 8 9 9 10 10 9 10 10 9 9 9 12 10 11 11 11 11 12 13 12 13 13 13 14 15 15 16 14 15 16
18 17 15 17 19 14 18 16 14 12 11 10 10 9 9 9 9 9 9 10 9 10 10 10 12 11 11 12 11 11 13 14 11 9 8 12 12 13 14 13 12 14 14
19 18 18 17 17 17 19 18 20 17 10 14 13 11 9 9 9 9 10 9 10 10 10 10 11 12 12 12 13 13 12 10 8 6 7 7 9 11 12 12 10 10 12
14 15 17 18 19 21 23 25 23 18 16 13 13 9 9 8 8 8 8 8 9 9 9 10 10 11 12 14 13 11 10 8 6 7 8 7 7 9 10 11 9 9 7
15 16 17 17 19 20 21 21 19 16 9 11 10 9 7 7 6 7 7 7 7 7 7 8 10 10 12 11 10 8 6 7 6 7 6 6 5 6 9 11 10 8 10
17 16 14 17 17 17 17 14 13 15 9 11 8 6 5 6 5 4 6 6 6 6 7 7 8 8 8 8 6 4 5 6 7 7 7 5 3 5 8 11 12 8 13
16 18 17 15 14 13 13 12 16 17 13 9 7 5 5 5 5 5 4 4 4 3 4 4 4 4 4 5 4 1 4 5 7 8 7 3 1 4 7 8 11 9 12
17 17 15 14 12 11 11 11 13 13 12 10 7 6 7 6 6 5 4 2 1 1 1 1 2 2 4 5 4 1 2 4 6 7 8 5 2 2 6 6 5 5 9
17 17 15 13 12 12 11 10 13 15 12 9 7 8 8 6 6 5 5 4 3 2 2 1 1 1 6 7 4 1 3 6 5 4 8 7 6 1 5 3 3 2 6
16 16 15 14 12 12 13 12 13 15 13 10 9 9 9 7 6 5 6 5 4 3 2 1 3 3 4 6 8 5 2 6 5 3 4 6 7 6 1 5 3 1 3

GFSMA_850_spd_177.txt.gz
Wind_Speed
17 15 13 12 11 10 9 8 8 7 6 4 3 3 2 2 3 4 5 4 3 5 7 4 3 2 5 6 7 8 8 11 13 16 14 14 15 16 16 15 14 12 15
18 15 13 13 12 11 10 8 8 7 6 5 4 3 3 3 4 4 5 6 6 8 10 8 4 3 5 6 8 8 10 12 13 13 16 16 15 17 18 17 17 16 16
20 17 15 14 13 12 11 10 9 8 7 6 5 4 4 4 5 5 4 5 6 7 5 4 2 3 5 8 9 10 11 11 12 13 14 16 17 19 17 16 17 18 23
22 20 18 16 14 13 12 12 11 10 8 7 6 6 6 7 7 6 6 6 6 5 4 2 3 4 5 7 9 10 12 10 10 12 15 17 19 20 19 18 18 18 20
22 21 20 18 16 14 13 12 12 11 9 8 7 7 8 9 8 8 8 7 7 5 3 1 2 3 4 5 7 8 9 9 9 8 11 12 13 16 18 20 21 22 22
23 23 22 20 17 16 15 14 13 12 10 10 10 10 10 10 10 10 9 9 8 6 3 1 1 2 4 5 5 6 8 9 10 9 8 8 8 9 12 15 18 20 21
24 23 23 20 18 17 17 16 15 14 15 14 14 14 13 11 12 11 10 9 8 7 4 2 1 2 3 3 5 6 8 10 10 11 9 9 10 10 11 12 14 15 16
24 23 23 21 19 19 19 18 18 18 17 19 16 14 10 10 11 12 12 12 10 8 6 4 3 2 3 5 7 8 8 9 10 11 11 10 11 12 12 14 13 14 15
23 23 22 20 20 19 19 18 18 17 18 20 17 11 7 6 14 12 13 12 11 10 8 6 4 5 5 6 7 8 9 10 11 12 14 15 15 15 16 16 16 15 15
24 20 20 20 19 19 19 19 19 18 18 19 19 19 14 9 8 8 14 14 13 12 10 8 6 6 7 7 8 10 10 12 14 14 14 13 13 15 16 17 17 16 16
27 21 19 20 20 19 19 19 18 18 18 17 19 20 18 14 13 9 11 15 16 15 13 11 9 7 7 7 8 12 15 17 18 18 17 15 15 15 15 15 16 17 18
13 17 19 18 18 16 16 16 15 15 14 13 15 16 17 17 17 14 10 13 12 14 14 12 10 8 7 6 9 11 14 15 15 15 15 15 16 17 17 16 14 14 14
9 15 12 12 11 11 10 11 11 13 16 17 18 17 17 16 15 17 14 14 11 13 13 14 13 10 8 6 9 13 15 14 15 16 15 15 13 12 12 11 12 13 15
5 12 7 7 10 12 15 17 17 18 21 16 14 13 10 13 15 15 16 17 11 10 13 13 15 12 9 8 10 11 14 15 16 12 12 12 13 12 11 9 10 13 13
13 8 10 11 12 15 17 19 18 17 17 17 16 17 20 16 13 12 14 16 15 12 13 16 13 15 12 10 9 9 10 12 15 16 13 11 11 12 10 10 11 13 12
8 8 11 11 14 14 14 16 16 17 17 15 13 13 14 13 12 12 12 13 15 11 9 14 18 15 12 10 8 6 7 9 10 13 15 14 11 10 12 11 12 12 14
9 10 9 11 11 9 10 11 11 13 12 14 15 13 10 11 12 12 12 11 10 10 9 14 15 13 11 10 8 6 7 5 7 8 12 13 10 10 12 13 13 12 15
10 10 11 11 12 14 16 18 19 18 18 16 14 14 12 13 12 12 12 11 10 10 10 12 13 13 12 10 9 8 9 9 7 7 9 11 8 10 12 11 11 11 13
11 10 9 10 11 11 11 12 14 16 17 20 20 13 12 12 13 13 12 11 11 11 11 10 11 12 11 10 10 9 9 9 8 8 7 9 7 9 11 11 9 6 9
9 8 11 11 12 14 14 16 17 20 24 22 16 9 12 13 13 12 11 11 11 10 9 9 10 10 10 9 8 8 6 6 7 8 7 5 6 8 9 11 7 9 12
13 14 11 10 11 12 14 17 18 21 19 17 16 11 10 10 9 10 10 10 10 10 9 9 8 8 8 7 7 8 8 6 9 7 5 4 2 4 8 10 6 10 14
16 16 14 12 11 12 15 17 17 17 18 17 12 8 10 9 8 8 9 10 9 8 8 9 8 8 7 6 6 7 8 9 6 9 5 3 0 3 7 12 4 10 14
17 17 16 14 13 13 14 14 13 13 16 14 12 10 6 4 5 5 5 7 7 6 7 6 6 6 5 4 5 6 8 8 8 8 7 4 2 2 5 9 6 7 11
17 15 15 15 14 14 13 11 11 13 17 17 16 14 8 8 7 6 5 5 5 5 6 6 5 3 2 2 4 6 8 10 8 8 8 4 3 2 3 6 5 3 7
17 16 16 16 15 13 12 11 12 14 16 15 15 15 10 10 9 8 7 6 6 6 5 5 4 3 4 4 5 6 9 8 7 9 8 5 6 4 0 2 6 6 8
16 16 15 15 14 13 12 11 13 14 16 16 15 13 9 8 9 9 8 8 7 7 6 6 6 6 6 6 5 5 9 8 8 5 5 6 7 4 1 2 2 2 3

GFSMA_850_spd_180.txt.gz
Wind_Speed
23 21 20 18 17 17 16 15 14 12 10 9 9 9 9 9 8 9 6 6 8 8 8 6 5 4 7 8 10 12 11 12 13 15 15 15 14 13 12 12 13 14 15
22 22 21 19 19 18 17 15 13 12 12 11 10 10 10 9 9 9 10 12 12 15 14 8 5 5 4 5 7 8 8 10 12 14 14 14 15 15 14 14 14 13 13
25 23 20 20 19 19 17 15 14 14 13 12 11 11 11 12 10 11 12 16 16 15 13 9 7 6 6 7 8 9 9 10 11 12 13 14 15 16 16 15 16 16 17
27 25 23 22 21 18 17 16 16 16 15 14 13 12 12 11 12 12 13 14 14 13 10 8 6 5 6 8 9 10 8 7 8 9 11 12 15 17 17 18 17 17 17
28 26 24 23 20 19 18 17 17 15 15 13 14 13 12 11 13 13 13 12 11 10 9 6 4 3 4 5 6 6 5 5 3 4 6 7 9 11 13 15 16 19 19
28 27 26 24 21 20 19 18 19 18 14 15 13 12 11 10 10 11 12 13 13 11 7 4 3 3 2 1 1 4 5 5 6 5 5 6 6 8 9 11 12 15 17
31 30 26 24 23 20 19 19 19 18 15 16 17 14 11 10 11 11 10 9 12 12 11 9 5 2 1 2 2 2 3 5 6 7 7 8 9 9 9 9 10 12 12
31 26 25 24 23 22 21 20 20 17 16 19 11 12 10 8 9 9 10 9 10 10 9 9 7 5 3 4 4 4 4 5 7 9 10 10 11 11 12 12 11 10 13
28 25 23 23 21 21 19 20 20 18 15 18 16 8 8 8 15 10 11 11 11 9 9 9 8 6 4 2 4 5 5 5 6 9 10 11 12 13 12 13 13 14 15
23 22 24 24 20 19 19 19 20 15 11 14 19 19 9 9 9 9 11 12 12 12 11 9 8 7 4 4 6 6 6 7 7 9 10 9 11 12 12 12 12 14 15
24 23 21 20 20 18 14 15 17 17 16 11 9 13 10 6 6 6 12 15 14 12 11 9 8 7 6 3 4 7 8 8 9 10 9 9 9 10 11 9 10 12 13
16 11 12 11 9 8 11 10 10 13 16 16 14 11 8 5 6 6 6 15 15 13 11 9 8 7 6 6 9 10 10 10 10 11 10 9 10 9 8 9 10 11 11
7 3 10 9 3 3 7 5 7 6 8 9 10 13 15 19 18 14 12 14 16 13 10 10 9 8 6 5 6 10 9 10 9 9 10 11 11 11 11 10 11 11 14
7 10 14 12 15 19 23 24 24 22 21 20 22 26 19 20 20 18 11 14 15 11 14 11 14 10 8 6 10 8 11 9 9 9 10 10 11 11 8 9 12 14 14
16 15 15 16 17 17 18 21 23 27 27 25 21 21 21 18 16 16 17 17 13 12 15 15 10 14 11 8 8 4 6 11 12 9 9 9 10 9 7 6 7 10 9
13 10 10 9 9 9 10 12 13 14 16 18 18 17 18 16 15 14 15 14 13 12 12 12 14 14 13 10 10 10 10 10 10 11 14 12 7 6 5 6 6 9 11
8 8 9 10 10 9 9 9 10 13 16 15 14 12 13 14 16 17 16 15 13 11 11 10 13 15 14 12 10 8 6 6 10 12 12 10 5 4 6 6 8 10 11
9 8 8 8 7 9 10 10 12 17 19 18 20 19 18 20 19 14 13 13 14 14 10 13 13 14 13 12 9 7 6 5 11 12 10 8 6 5 5 5 3 8 12
11 10 10 9 6 5 5 8 8 10 12 13 14 17 21 24 19 11 14 16 14 13 9 12 11 12 13 12 10 9 6 13 10 11 7 8 5 5 6 5 4 9 13
13 14 12 9 7 5 6 7 8 9 12 15 17 21 20 16 14 16 16 15 15 12 12 11 11 12 11 11 11 9 8 9 7 11 8 5 3 7 5 5 6 11 14
15 14 12 8 7 5 6 7 8 11 14 17 16 16 16 16 12 14 15 14 11 10 10 11 12 13 11 10 11 12 11 12 10 8 6 2 3 0 5 3 8 11 14
17 15 12 10 9 8 9 9 11 14 14 14 13 13 15 13 13 14 15 13 13 15 12 11 12 11 10 12 13 10 13 11 8 9 8 3 5 2 4 3 6 10 12
16 14 14 12 10 10 12 11 11 14 13 12 11 11 10 10 11 11 13 11 11 12 14 15 12 13 12 13 10 10 11 12 8 9 8 6 5 6 5 7 2 4 11
18 16 15 12 13 13 13 13 13 13 12 11 11 12 12 11 8 7 10 12 14 14 14 15 14 12 11 11 11 9 10 16 17 11 13 6 8 5 7 5 6 6 9
19 18 14 14 15 15 14 14 13 13 13 14 15 17 17 16 15 10 12 12 9 10 11 11 11 9 9 9 12 8 9 8 7 8 14 8 8 6 4 6 9 9 8
20 18 16 16 16 16 16 15 14 14 15 16 16 16 15 14 11 12 11 11 12 12 11 10 9 8 7 8 9 14 10 8 8 5 10 8 8 7 3 2 4 4 3